| time (UTC) | temp F | wind direction | speed MPH | gust MPH | rain 1hr in | rain 24hr in | rain mn in | humidity % | barometer mb |
| 20260504214406 | 51 | 11 | 7.0 | 15.0 | 0.00 | 0.00 | 0.00 | 47 | 1002.1 |
| 20260504213400 | 51 | 11 | 5.0 | 15.0 | 0.00 | 0.00 | 0.00 | 49 | 1002.0 |
| 20260504212415 | 52 | 11 | 6.0 | 14.0 | 0.00 | 0.00 | 0.00 | 47 | 1001.9 |
| 20260504211351 | 53 | 123 | 6.0 | 16.0 | 0.00 | 0.00 | 0.00 | 47 | 1001.8 |
| 20260504210338 | 51 | 11 | 7.0 | 16.0 | 0.00 | 0.00 | 0.00 | 49 | 1001.9 |
| 20260504205339 | 50 | 13 | 8.0 | 16.0 | 0.00 | 0.00 | 0.00 | 54 | 1002.0 |
| 20260504204327 | 49 | 12 | 8.0 | 19.0 | 0.00 | 0.00 | 0.00 | 58 | 1002.0 |
| 20260504203302 | 48 | 11 | 10.0 | 19.0 | 0.00 | 0.00 | 0.00 | 58 | 1002.4 |
| 20260504202241 | 48 | 11 | 8.0 | 17.0 | 0.00 | 0.00 | 0.00 | 55 | 1002.5 |
| 20260504200052 | 51 | 11 | 4.0 | 15.0 | 0.00 | 0.00 | 0.00 | 46 | 1002.4 |
| 20260504193938 | 52 | 15 | 1.0 | 8.0 | 0.00 | 0.00 | 0.00 | 44 | 1002.3 |
| 20260504192921 | 52 | 14 | 2.0 | 8.0 | 0.00 | 0.00 | 0.00 | 43 | 1002.2 |
| 20260504185656 | 54 | 15 | 2.0 | 10.0 | 0.00 | 0.00 | 0.00 | 40 | 1002.1 |
| 20260504184631 | 55 | 14 | 0.0 | 4.0 | 0.00 | 0.00 | 0.00 | 34 | 1002.0 |
| 20260504183653 | 55 | 14 | 0.0 | 0.0 | 0.00 | 0.00 | 0.00 | 32 | 1002.0 |
| 20260504182655 | 55 | 14 | 0.0 | 0.0 | 0.00 | 0.00 | 0.00 | 30 | 1002.0 |
| 20260504181622 | 55 | 13 | 2.0 | 10.0 | 0.00 | 0.00 | 0.00 | 32 | 1002.0 |
| 20260504180627 | 56 | 9 | 6.0 | 11.0 | 0.00 | 0.00 | 0.00 | 33 | 1002.1 |
| 20260504175651 | 58 | 332 | 3.0 | 12.0 | 0.00 | 0.00 | 0.00 | 35 | 1002.2 |
| 20260504174619 | 57 | 335 | 5.0 | 12.0 | 0.00 | 0.00 | 0.00 | 36 | 1002.2 |
| 20260504173606 | 58 | 9 | 4.0 | 11.0 | 0.00 | 0.00 | 0.00 | 35 | 1002.4 |
| 20260504171421 | 57 | 12 | 2.0 | 7.0 | 0.00 | 0.00 | 0.00 | 37 | 1002.5 |
| 20260504170352 | 56 | 296 | 3.0 | 10.0 | 0.00 | 0.00 | 0.00 | 37 | 1002.7 |
| 20260504150352 | 52 | 323 | 1.0 | 5.0 | 0.00 | 0.00 | 0.00 | 45 | 1003.1 |
| 20260504140348 | 45 | 166 | 1.0 | 3.0 | 0.00 | 0.00 | 0.00 | 61 | 1003.2 |
| 20260504130325 | 41 | 165 | 3.0 | 5.0 | 0.00 | 0.00 | 0.00 | 65 | 1003.6 |
| 20260504120155 | 41 | 156 | 0.0 | 0.0 | 0.00 | 0.00 | 0.00 | 60 | 1004.0 |
| 20260504081520 | 41 | 142 | 6.0 | 9.0 | 0.00 | 0.00 | 0.00 | 50 | 1004.2 |
| 20260504070333 | 40 | 140 | 6.0 | 9.0 | 0.00 | 0.00 | 0.00 | 50 | 1004.6 |
| 20260504050202 | 42 | 135 | 6.0 | 9.0 | 0.00 | 0.00 | 0.00 | 46 | 1005.6 |
| 20260504045225 | 43 | 124 | 5.0 | 9.0 | 0.00 | 0.00 | 0.00 | 46 | 1005.7 |
| 20260504044227 | 43 | 134 | 6.0 | 9.0 | 0.00 | 0.00 | 0.00 | 45 | 1005.6 |
| 20260504043208 | 43 | 138 | 5.0 | 8.0 | 0.00 | 0.00 | 0.00 | 45 | 1005.7 |
| 20260504042206 | 44 | 136 | 5.0 | 8.0 | 0.00 | 0.00 | 0.00 | 44 | 1005.7 |
| 20260504041215 | 44 | 132 | 4.0 | 7.0 | 0.00 | 0.00 | 0.00 | 44 | 1005.7 |
| 20260504040201 | 45 | 142 | 4.0 | 9.0 | 0.00 | 0.00 | 0.00 | 43 | 1005.7 |
| 20260504035202 | 45 | 140 | 5.0 | 9.0 | 0.00 | 0.00 | 0.00 | 41 | 1005.7 |
| 20260504034200 | 45 | 121 | 5.0 | 8.0 | 0.00 | 0.00 | 0.00 | 41 | 1005.7 |
| 20260504032051 | 46 | 133 | 0.0 | 0.0 | 0.00 | 0.00 | 0.00 | 40 | 1005.7 |
| 20260504031026 | 46 | 127 | 0.0 | 0.0 | 0.00 | 0.00 | 0.00 | 40 | 1005.8 |
| 20260504030045 | 47 | 136 | 0.0 | 0.0 | 0.00 | 0.00 | 0.00 | 39 | 1005.8 |
| 20260504025055 | 48 | 138 | 0.0 | 0.0 | 0.00 | 0.00 | 0.00 | 39 | 1005.8 |
| 20260504024022 | 48 | 127 | 0.0 | 0.0 | 0.00 | 0.00 | 0.00 | 38 | 1005.8 |
| 20260504023008 | 49 | 138 | 0.0 | 0.0 | 0.00 | 0.00 | 0.00 | 36 | 1005.8 |
| 20260504022014 | 50 | 136 | 0.0 | 0.0 | 0.00 | 0.00 | 0.00 | 36 | 1005.9 |
| 20260504021010 | 52 | 141 | 0.0 | 0.0 | 0.00 | 0.00 | 0.00 | 33 | 1005.9 |
| 20260504020014 | 53 | 150 | 0.0 | 0.0 | 0.00 | 0.00 | 0.00 | 29 | 1006.0 |
| 20260504014944 | 54 | 264 | 0.0 | 0.0 | 0.00 | 0.00 | 0.00 | 26 | 1006.0 |
| 20260504013918 | 55 | 265 | 0.0 | 0.0 | 0.00 | 0.00 | 0.00 | 22 | 1006.0 |
| 20260504011758 | 56 | 265 | 0.0 | 0.0 | 0.00 | 0.00 | 0.00 | 19 | 1006.0 |
| 20260504010817 | 56 | 265 | 0.0 | 0.0 | 0.00 | 0.00 | 0.00 | 18 | 1006.1 |
| 20260504005816 | 56 | 265 | 0.0 | 0.0 | 0.00 | 0.00 | 0.00 | 19 | 1006.1 |
| 20260504003611 | 57 | 286 | 0.0 | 1.0 | 0.00 | 0.00 | 0.00 | 20 | 1006.3 |
| 20260504002625 | 57 | 286 | 0.0 | 0.0 | 0.00 | 0.00 | 0.00 | 19 | 1006.3 |
| 20260504001629 | 57 | 271 | 0.0 | 0.0 | 0.00 | 0.00 | 0.00 | 20 | 1006.3 |
| 20260503235500 | 57 | 264 | 2.0 | 8.0 | 0.00 | 0.00 | 0.00 | 19 | 1006.2 |
| 20260503234511 | 58 | 255 | 0.0 | 6.0 | 0.00 | 0.00 | 0.00 | 18 | 1006.2 |
| 20260503233501 | 59 | 20 | 1.0 | 9.0 | 0.00 | 0.00 | 0.00 | 17 | 1006.2 |
| 20260503232452 | 59 | 271 | 2.0 | 9.0 | 0.00 | 0.00 | 0.00 | 19 | 1006.3 |
| 20260503231417 | 58 | 209 | 1.0 | 5.0 | 0.00 | 0.00 | 0.00 | 18 | 1006.3 |
| 20260503230344 | 59 | 335 | 4.0 | 11.0 | 0.00 | 0.00 | 0.00 | 18 | 1006.4 |
| 20260503225405 | 60 | 258 | 2.0 | 11.0 | 0.00 | 0.00 | 0.00 | 18 | 1006.5 |
| 20260503224408 | 60 | 268 | 3.0 | 10.0 | 0.00 | 0.00 | 0.00 | 17 | 1006.5 |
| 20260503223414 | 59 | 273 | 1.0 | 16.0 | 0.00 | 0.00 | 0.00 | 17 | 1006.6 |
| 20260503222431 | 60 | 154 | 3.0 | 16.0 | 0.00 | 0.00 | 0.00 | 17 | 1006.9 |
| 20260503221418 | 60 | 219 | 5.0 | 15.0 | 0.00 | 0.00 | 0.00 | 17 | 1007.0 |
| 20260503220406 | 60 | 270 | 4.0 | 15.0 | 0.00 | 0.00 | 0.00 | 19 | 1007.1 |
| 20260503215408 | 60 | 273 | 3.0 | 12.0 | 0.00 | 0.00 | 0.00 | 19 | 1007.2 |